Theta_e
325 323 322 322 321 318 316 317 317 319 319 319 317 316 315 314 313 312 311 311 310 309 309 309 309 309 309 309 310 311 312 313 315 316 322 341 343 344 342 341 336 332 334
325 324 323 322 322 319 317 318 318 319 319 319 319 318 318 317 316 314 314 314 314 313 311 311 310 310 311 311 311 311 309 309 309 310 314 320 340 342 343 341 341 340 334
325 324 324 322 322 320 318 319 319 319 319 319 319 319 318 318 317 317 315 315 316 317 317 316 314 313 311 310 311 311 312 313 310 308 308 312 326 341 341 341 340 342 340
325 325 325 323 322 321 320 320 320 320 320 319 319 319 320 320 320 319 317 316 316 319 320 320 321 321 319 314 311 309 310 312 314 312 308 308 312 339 340 340 340 340 342
326 325 324 324 323 322 320 320 320 320 320 319 320 320 320 321 321 321 319 318 316 318 321 323 323 322 324 324 323 314 311 311 312 315 313 308 308 335 340 340 340 340 340
328 325 324 324 323 323 321 320 320 320 320 319 320 320 321 321 322 322 322 321 318 317 322 323 323 323 325 326 325 323 318 323 318 313 318 312 307 325 338 330 337 338 340
331 327 325 324 324 323 322 320 320 320 320 319 320 320 321 321 322 322 322 322 321 319 322 324 322 321 328 325 331 331 328 324 326 326 316 317 308 312 333 331 331 334 338
331 330 330 325 323 323 322 321 320 320 320 320 320 320 321 321 321 322 322 322 322 322 324 325 324 322 320 319 321 324 326 329 324 329 323 320 316 315 324 326 330 337 338
333 332 331 329 324 322 322 322 321 320 320 319 320 320 320 321 321 321 321 322 322 323 326 327 327 327 326 322 320 319 319 321 329 326 325 322 323 322 323 325 326 327 330
333 333 333 332 331 327 323 322 321 320 320 319 319 320 320 320 320 320 321 321 321 325 326 328 329 329 328 328 326 323 322 320 319 321 324 323 323 328 325 325 327 329 327
334 334 334 334 333 333 329 324 322 321 320 319 319 319 319 320 320 320 321 321 322 326 327 329 331 330 330 328 326 324 323 321 319 317 320 324 320 328 331 327 328 329 328
333 333 334 334 334 334 333 329 326 323 321 321 319 319 319 319 320 320 321 322 323 327 328 330 332 332 330 329 328 327 325 324 318 316 317 320 322 325 331 330 331 331 330
332 332 332 333 334 334 334 334 332 330 324 322 321 320 319 319 320 320 321 322 323 328 328 330 332 332 330 329 329 328 324 320 325 327 327 322 320 322 331 329 330 329 329
331 329 329 329 330 331 334 334 334 333 330 325 323 321 320 319 319 320 320 321 323 328 329 329 332 333 331 329 329 328 328 327 328 328 328 327 323 323 327 331 329 329 330
329 330 331 330 329 329 331 332 332 333 332 331 326 324 322 321 319 319 319 320 322 329 332 330 332 333 332 330 329 329 328 327 327 328 327 328 327 325 328 328 328 328 329
329 329 330 330 330 328 328 328 328 330 330 332 331 329 325 322 321 321 320 321 323 333 334 332 332 332 331 331 330 329 330 328 327 327 326 326 327 327 328 328 328 329 328
328 329 328 328 329 328 328 328 328 328 330 332 333 334 332 327 323 323 323 323 328 334 335 333 332 331 329 331 329 329 329 330 329 327 327 327 326 327 329 328 328 330 329
328 328 328 328 329 328 328 328 328 328 330 333 334 335 335 332 332 335 333 328 335 333 332 333 332 330 332 332 329 330 330 329 329 328 328 327 328 327 330 329 330 329 327
328 328 328 328 328 328 328 328 328 330 332 334 336 338 337 337 339 337 335 337 336 332 332 332 334 331 332 331 330 330 328 328 328 328 327 327 327 326 329 330 328 327 327
328 328 328 328 328 329 329 328 329 332 334 336 338 339 339 340 340 339 336 337 335 333 332 331 331 332 330 329 329 328 328 328 328 328 327 327 325 325 326 328 328 328 326
327 328 328 327 328 329 329 329 332 332 335 338 340 340 341 342 341 336 335 333 333 334 331 331 332 330 329 329 328 328 328 327 327 327 326 326 326 325 327 327 329 328 329
327 328 327 328 328 329 330 331 333 334 338 341 341 341 341 340 337 334 333 332 333 333 332 330 328 328 328 328 328 328 327 327 326 326 325 325 326 327 327 326 327 327 328
324 327 328 328 328 329 331 334 337 341 342 341 341 339 336 335 334 332 332 333 333 331 331 328 328 328 328 328 328 326 325 323 323 323 323 325 326 327 326 327 327 326 327
325 327 329 329 330 332 334 337 339 341 342 341 340 339 337 335 333 332 333 333 332 331 329 329 329 328 327 327 327 326 326 325 324 325 323 324 326 327 327 327 327 326 327
326 329 331 332 333 334 337 339 342 342 341 340 339 334 333 333 332 333 334 333 329 328 329 328 327 326 326 325 325 325 326 324 326 326 325 326 327 328 325 326 327 327 327
328 331 333 334 334 337 341 341 340 337 336 334 333 334 333 334 334 334 332 330 328 328 327 325 325 325 325 325 325 325 325 324 324 326 326 325 326 326 326 325 326 326 326
Wind_Speed
21 21 18 16 13 12 11 10 9 9 9 9 9 9 8 6 5 4 4 5 6 8 9 9 10 10 11 11 12 14 14 14 14 12 10 10 7 7 6 4 5 5 6
22 23 18 16 16 14 12 11 10 9 9 9 9 8 8 7 6 4 3 3 4 5 6 6 8 9 9 9 10 11 12 13 13 15 14 12 10 8 7 5 6 8 7
22 21 19 18 16 15 14 13 12 11 10 9 9 8 7 6 5 4 3 3 3 3 4 4 5 6 7 8 9 10 10 11 11 12 15 15 13 10 9 9 8 8 8
21 16 18 19 18 16 16 16 15 14 12 11 10 8 6 4 3 2 2 2 2 1 2 4 4 4 5 6 7 9 9 10 9 9 12 14 15 12 11 11 11 11 10
16 14 18 19 19 17 18 18 18 17 16 15 13 10 8 5 3 2 2 3 4 4 4 4 4 5 5 5 5 7 8 8 9 8 9 12 17 16 13 12 12 11 12
15 16 19 20 19 19 19 20 20 19 19 18 16 13 10 8 6 3 0 3 4 4 5 5 5 5 6 7 7 6 7 7 7 7 8 10 15 20 18 13 14 12 10
13 17 19 19 20 22 21 22 22 22 21 21 19 16 14 11 9 6 3 3 5 5 5 5 5 6 7 9 9 9 9 9 8 6 8 9 13 19 21 18 12 13 10
9 14 19 23 25 25 25 24 24 24 24 24 22 19 17 15 12 9 7 5 5 5 6 6 6 8 7 9 11 12 13 13 10 9 8 10 12 16 18 15 8 9 12
12 16 17 22 26 27 28 26 27 27 27 27 25 23 21 19 16 12 10 8 7 5 6 6 6 8 8 9 11 12 13 14 15 12 13 12 14 15 15 15 11 10 9
21 20 20 23 24 27 31 31 30 30 30 30 29 27 25 23 20 17 14 11 9 7 5 7 6 7 8 11 12 13 13 15 16 16 14 14 15 17 17 18 16 14 11
24 26 25 27 28 28 31 33 32 34 34 33 32 31 29 28 24 20 17 13 11 10 8 8 7 8 10 10 10 12 14 15 14 14 15 15 16 19 17 19 19 16 12
26 27 31 32 31 34 35 36 36 38 39 38 38 36 35 33 28 24 20 16 14 12 10 10 9 10 10 9 8 10 12 12 12 10 12 17 17 19 19 15 15 15 13
26 29 32 34 35 38 38 38 40 40 43 43 41 40 39 36 32 29 24 20 17 15 14 11 10 12 10 9 10 10 7 6 7 7 8 12 18 20 21 16 15 15 13
27 27 26 25 31 35 40 40 40 43 46 47 45 43 42 40 36 32 28 23 19 18 17 14 13 14 13 11 10 10 11 10 10 9 7 9 16 19 22 19 17 16 16
28 32 33 28 28 28 35 33 35 38 41 49 47 45 44 42 38 33 30 25 21 21 18 16 15 16 15 13 14 13 12 15 13 13 9 9 10 15 18 20 19 16 15
27 28 30 33 35 27 24 25 27 32 34 37 42 45 44 42 37 33 31 26 25 21 19 17 15 16 17 16 14 16 15 16 18 17 13 11 12 15 18 18 19 17 15
40 40 35 34 31 25 22 22 25 27 30 34 37 41 39 36 33 30 30 27 23 19 19 19 16 18 20 18 18 18 20 19 20 18 17 14 13 13 16 20 20 18 16
37 37 36 31 27 26 25 22 24 25 26 29 31 35 30 25 23 23 26 24 20 18 19 20 18 19 21 20 20 22 23 23 22 21 18 16 14 13 12 14 15 15 14
44 40 34 30 30 28 24 25 27 24 26 28 29 26 23 21 21 24 21 20 17 19 20 21 18 20 23 23 23 22 22 21 20 19 17 16 15 14 13 14 12 15 15
38 36 30 30 31 26 26 27 29 26 28 27 24 21 19 19 21 19 17 19 20 20 18 18 20 22 23 22 20 20 20 21 22 22 18 16 19 17 17 14 14 14 12
39 34 30 31 32 28 28 29 30 27 26 24 20 19 18 19 19 17 16 18 22 18 15 16 18 21 21 19 17 18 18 19 19 21 21 21 17 18 19 18 15 12 12
25 31 31 29 29 25 28 30 27 23 21 17 17 17 18 18 18 17 15 17 17 18 18 19 20 22 21 18 19 13 9 14 17 18 20 19 17 17 19 18 17 14 11
30 28 30 25 23 25 25 24 22 17 16 17 17 17 17 14 13 12 12 14 18 19 19 18 17 16 17 14 14 9 5 6 6 14 20 17 17 17 16 20 19 18 14
36 28 28 24 22 21 21 20 23 24 21 19 16 13 12 12 13 13 15 19 18 19 19 17 16 15 14 12 14 15 11 2 3 3 11 14 14 15 14 15 14 16 16
26 26 26 22 20 18 18 16 19 19 18 18 15 13 14 14 15 17 17 18 16 16 16 16 12 11 11 12 13 13 16 14 7 3 3 13 14 15 15 15 14 13 18
19 26 24 21 19 17 18 18 18 19 19 18 17 16 14 14 14 14 16 15 15 13 11 9 9 9 10 11 13 14 14 14 16 10 7 8 16 16 14 17 16 16 14
Wind_Direction
183 176 179 174 172 176 170 159 148 138 132 134 137 135 135 139 148 170 206 229 230 229 229 234 242 242 237 239 244 248 246 243 244 242 240 244 235 224 196 183 170 179 172
169 172 177 183 181 180 179 173 164 158 155 153 150 146 144 143 141 144 167 204 233 245 245 237 238 242 244 240 240 242 245 246 241 242 238 237 236 230 229 212 201 185 191
176 168 180 188 186 185 186 184 181 179 175 175 168 164 158 148 136 135 146 167 195 219 244 254 252 254 256 250 248 246 241 245 245 240 240 234 232 226 229 224 219 211 197
175 174 187 194 192 193 193 193 194 192 194 195 189 185 180 168 147 125 81 27 339 261 235 244 262 270 269 264 259 254 247 239 241 240 235 231 225 219 217 223 223 222 218
175 193 196 200 199 202 203 200 202 202 205 206 203 203 201 197 185 155 81 20 346 314 291 278 270 275 280 284 281 267 258 249 238 236 239 231 217 212 211 217 218 220 219
183 201 206 208 208 210 210 209 209 211 213 213 211 210 215 217 215 209 52 4 340 316 293 270 270 271 279 281 276 275 268 261 254 244 241 238 217 210 213 210 220 218 220
193 206 214 218 221 216 218 219 217 219 220 219 218 218 221 224 224 231 256 319 331 314 294 281 285 284 277 278 275 273 271 267 264 254 241 241 224 212 218 223 227 220 223
208 217 223 222 221 223 224 225 225 225 225 225 223 223 225 229 226 232 252 281 305 309 304 298 289 289 278 276 273 271 268 262 257 248 243 234 227 218 218 220 217 232 230
222 230 239 230 227 229 229 230 231 232 230 230 228 229 229 232 233 234 244 260 283 289 295 300 299 294 292 284 274 272 273 260 257 249 248 237 223 220 214 205 213 227 236
229 231 238 241 239 234 234 233 235 237 235 234 233 233 234 234 235 236 242 252 274 274 280 286 295 301 302 285 275 272 273 266 254 248 241 235 226 222 221 219 211 220 225
231 239 239 245 242 247 242 238 237 239 239 237 237 237 236 237 237 239 243 250 267 269 274 273 274 294 306 306 290 274 272 269 263 253 235 232 230 221 223 228 222 224 229
239 244 243 245 248 249 248 242 241 241 239 236 238 237 237 238 240 242 244 247 260 261 262 263 265 282 297 299 293 295 291 264 262 252 244 231 231 221 222 221 218 221 232
258 249 247 248 247 244 245 247 247 247 242 239 239 240 240 240 239 241 242 245 256 257 260 266 267 275 282 285 283 283 303 251 249 234 256 238 232 223 219 218 214 220 230
257 255 260 253 244 243 242 245 249 251 249 242 241 241 241 241 240 242 244 245 253 257 261 263 263 265 270 270 278 276 271 265 256 251 258 252 239 228 223 223 223 227 236
283 273 272 265 260 251 239 242 248 254 260 250 243 244 244 244 244 244 247 246 252 254 255 263 262 260 262 288 269 266 274 263 259 252 260 252 238 227 227 229 228 228 230
294 289 275 280 268 247 244 248 253 259 261 258 252 247 247 247 248 248 250 248 250 250 255 260 260 262 267 285 277 268 277 267 266 259 258 254 246 236 233 231 233 228 229
290 287 284 284 269 243 261 261 262 264 263 257 255 250 249 250 252 251 250 250 245 250 257 253 253 254 260 276 276 269 267 269 268 264 258 255 252 253 255 242 233 225 240
286 289 279 280 252 247 259 265 270 260 261 256 255 252 247 244 242 246 244 232 241 256 261 257 245 252 259 268 267 266 269 267 263 257 255 249 248 250 254 227 218 229 234
287 288 274 266 241 250 257 265 260 256 255 254 253 250 237 234 238 238 225 225 242 260 265 260 253 253 265 272 267 268 265 261 245 250 248 244 247 246 236 227 237 239 240
284 289 266 246 243 249 255 255 248 247 250 251 250 237 233 229 233 236 220 234 245 257 264 260 263 265 268 270 266 264 257 250 245 244 246 248 245 243 227 217 237 230 239
284 274 246 241 242 246 250 247 240 242 247 242 230 226 224 224 230 220 229 245 243 261 274 277 272 269 269 266 265 252 252 250 244 241 247 245 246 233 217 227 230 228 233
277 271 247 243 241 249 252 243 241 243 236 230 222 219 222 219 222 232 245 241 253 271 272 277 273 273 270 261 248 244 256 247 245 246 244 242 236 225 220 218 221 224 238
291 272 242 239 236 249 240 239 232 217 197 191 202 207 208 228 231 237 242 249 256 271 278 280 275 271 264 254 239 221 204 228 244 241 237 233 224 223 230 220 227 231 236
284 264 237 233 235 234 225 223 226 221 214 216 217 208 217 225 232 237 245 250 266 278 282 278 272 263 255 241 225 219 225 237 224 260 223 213 217 217 216 219 229 224 229
269 236 227 225 224 219 217 213 213 210 212 210 201 205 213 223 233 234 242 262 277 277 271 271 260 249 237 227 224 221 228 232 240 245 218 212 211 213 217 224 230 231 233
239 221 217 214 205 201 197 192 202 204 195 185 194 204 210 221 224 232 250 269 271 265 261 251 233 223 227 227 227 228 234 232 226 229 228 219 218 218 227 236 242 240 243